Location: Jetmore
(38.0845°N, 99.8935°W)
Time: 09:59:11
(UTC+00:00)

N. Korean satellite - Pass Details

Date: 24 September 2021
Orbit: 450 x 495 km, 97.3° (Epoch: 15 October)

Event Time Altitude Azimuth Distance (km) Brightness Sun altitude
Rises 11:50:47 0° 12° (NNE) 2,524 10.5 -8.4°
Reaches altitude 10° 11:52:50 10° 14° (NNE) 1,650 9.5 -8.0°
Maximum altitude 11:56:23 79° 101° (E) 494 6.7 -7.3°
Drops below altitude 10° 11:59:58 10° 189° (S) 1,663 9.1 -6.6°
Sets 12:02:02 0° 190° (S) 2,545 10.1 -6.2°
